星链-35596(STARLINK-35596)

导读

STARLINK-35596是美国太空探索技术公司SpaceX星链星座的一员,于2025年10月19日发射入轨。星链项目旨在构建全球卫星互联网星座,该卫星承担着为全球偏远地区、海洋空域等场景提供低延迟宽带网络服务的任务,是SpaceX推进星链星座组网部署的最新发射单元之一,进一步扩充了低轨卫星互联网的覆盖能力与服务容量。

Basic Information
目录编号:
66086
目录名称:
STARLINK-35596
国际标识:
2025-236A
轨道中心:
EARTH
卫星名称:
星链-35596
卫星全名:
星链-35596(STARLINK-35596)
卫星状态:
在轨 (已飞行320 天)
发射日期:
2025-10-19 UTC
国别 :
美国 (US)
星等 :
--
Orbit Information
数据来源 国际轨道数据
星历时间: 2026-09-04T03:56:59+0800
12小时前
查看轨道信息
半长轴: 6840.879km
偏心率: 0.0001276
轨道倾角: 53.162°
近地点辐角 88.623°
升交点赤经 355.383°
平近点角 271.491°
近地点: 461.869km
远地点: 463.615km
周期: 93.849分钟
每日圈数: 15.343871
Detailed Information
固有亮度:
5
最大亮度:
2.5
卫星平台:
Starlink V1.0
覆盖范围:
全球
运营商:
太空探索技术公司
运营商所在国:
美国
制造商(研发单位):
太空探索技术公司
制造商所在国:
美国
使用方式:
暂无
Satellite Introduction
Starlink 计划是 SpaceX 推出的全球卫星互联网项目,通过发射低轨道卫星,为全球尤其是偏远地区提供高速、低延迟的互联网服务。自 2019 年起,Starlink 已部署数千颗卫星,旨在缩小全球数字鸿沟,推动互联网普及。该项目还为军事、航空等行业提供通信支持,带来广泛经济效益。
2D Orbit Map
3D Orbit Map
Orbit Altitude Analysis Chart
Orbit Inclination Analysis Chart
Orbit Comprehensive Analysis Chart
View Comprehensive Chart
Conjunction Data List
Event ID Objects TCA Miss Dist (km) Collision Risk Probability Collision Risk Index (CRI) Action
CDM_260827-180006-521306-608621
2026-08-27T
18:00:13+0000
0.922 km
远距离
1.635416E-5 中风险 0.59
CDM_260905-042706-175106-608621
OBJECT S (61751)
2026-09-05T
04:27:53+0000
2.334 km
极远距离
1.893295E-6 低风险 0.41
CDM_260905-130205-256006-608621
2026-09-05T
13:02:18+0000
2.924 km
极远距离
6.921563E-7 极低风险 0.32